[[{"header":{"parameterUnit":"m.s-1","parameterCategory":1,"la1":30.2991,"la2":30.254,"lo1":-89.0895,"lo2":-89.0444,"dy":0.0017,"dx":0.0017,"nx":28,"ny":28,"refTime":"2024-02-14T03:00:00:Z","depth":0,"parameterNumber":2,"parameterNumberName":"U-component_of_WINDS"},"data":[0,0,0,0,0,0,0,0,0,0,0,0,0,0,0,0,0,0,0,0,0,0,0,0,0,0,0,0,0,0,0,0,0,0,0,0,0,0,0,0,0,0,0,0,0,0,0,0,0,0,0,0,0,0,0,0,0,0,-1.3275,-1.3275,0,-1.3276,-1.3276,-1.3276,-1.3189,-1.3187,-1.3185,-1.3183,-1.3185,-1.3187,-1.3189,0,0,0,0,0,0,0,0,0,0,0,0,0,-1.32,-1.3202,-1.3275,-1.3275,-1.3275,-1.3276,-1.3276,-1.3276,-1.319,-1.3187,-1.3184,-1.3182,-1.3184,-1.3187,-1.3189,0,0,0,0,0,0,0,0,0,0,0,0,0,-1.322,-1.3203,-1.3275,-1.3232,-1.3228,-1.3276,-1.3276,-1.3276,-1.319,-1.3187,-1.3183,-1.318,-1.3183,-1.3187,-1.319,-1.3279,0,0,-1.32,-1.3201,0,0,0,0,0,0,0,0,-1.3219,-1.3223,-1.3239,-1.3235,-1.3231,-1.3229,-1.325,-1.3277,-1.3191,-1.3205,-1.3183,-1.3179,-1.3203,-1.3204,-1.3212,-1.3279,-1.3279,-1.32,-1.3202,-1.3204,-1.3204,0,0,0,0,0,0,0,-1.3218,-1.3223,-1.3276,-1.3239,-1.3234,-1.3213,-1.3212,-1.3255,-1.3223,-1.3203,-1.3197,-1.3198,-1.32,-1.3209,-1.3211,-1.3279,-1.32,-1.3203,-1.3205,-1.3206,-1.3419,-1.3423,0,0,0,0,0,0,-1.3222,-1.3222,-1.3276,-1.3276,-1.3216,-1.3218,-1.3216,-1.3233,-1.3222,-1.3217,-1.3201,-1.3194,-1.3205,-1.3207,-1.3211,-1.3314,-1.3204,-1.3207,-1.3209,-1.3416,-1.342,-1.3424,0,0,0,0,0,0,-1.3221,-1.3228,-1.3275,-1.3247,-1.3252,-1.3222,-1.3242,-1.3235,-1.3244,-1.3221,-1.3215,-1.3216,-1.3202,-1.3206,-1.3262,-1.3313,-1.3208,-1.3211,-1.3411,-1.3417,-1.3422,-1.3521,0,0,0,0,0,0,-1.3219,-1.3228,-1.3261,-1.3248,-1.3253,-1.3327,-1.3245,-1.3238,-1.325,-1.324,-1.3233,-1.3229,-1.32,-1.3258,-1.3266,-1.3315,-1.3214,-1.3407,-1.3414,-1.342,-1.3513,-1.3529,-1.3543,0,0,0,0,0,-1.3217,-1.3289,-1.3263,-1.327,-1.3294,-1.333,-1.3333,-1.3298,-1.3254,-1.3287,-1.3272,-1.3229,-1.3306,-1.3265,-1.3272,-1.3324,-1.3403,-1.3412,-1.342,-1.3506,-1.3526,-1.3543,0,0,0,0,0,0,-1.3309,-1.3287,-1.3258,-1.3328,-1.3332,-1.3315,-1.3356,-1.332,-1.3336,-1.3327,-1.3283,-1.3282,-1.3346,-1.334,-1.3294,-1.3409,-1.3347,-1.3357,-1.341,-1.3429,-1.3443,-1.3443,-1.3216,0,0,0,0,0,-1.3338,-1.3368,-1.3347,-1.3412,-1.3415,-1.3386,-1.34,-1.3373,-1.3374,-1.3376,-1.3365,-1.3369,-1.3394,-1.3411,-1.3433,-1.3513,-1.3509,-1.3552,-1.3567,-1.3579,-1.3588,-1.3629,-1.3648,-1.3451,-1.3451,-1.3451,0,0,-1.3397,-1.3388,-1.341,-1.343,-1.3429,-1.3462,-1.3387,-1.3425,-1.3449,-1.3381,-1.3433,-1.3426,-1.3427,-1.3496,-1.3525,-1.3493,-1.3642,-1.359,-1.36,-1.3602,-1.364,-1.3658,-1.3675,-1.3457,-1.3456,-1.3455,0,0,-1.3521,-1.3518,-1.3571,-1.3572,-1.3572,-1.3552,-1.3565,-1.3554,-1.3547,-1.3598,-1.3548,-1.3576,-1.3621,-1.3623,-1.3631,-1.3757,-1.3717,-1.3766,-1.3843,-1.3884,-1.3899,-1.3913,-1.3957,-1.3974,-1.3775,-1.3775,-1.3775,0,-1.3594,-1.3641,-1.3603,-1.3644,-1.3654,-1.3594,-1.3647,-1.3651,-1.3658,-1.3667,-1.3631,-1.3685,-1.3682,-1.375,-1.378,-1.3789,-1.3802,-1.3766,-1.39,-1.3913,-1.3925,-1.3967,-1.3984,-1.3781,-1.378,-1.378,-1.3779,0,-1.3731,-1.3765,-1.3808,-1.3816,-1.3831,-1.3878,-1.3847,-1.3867,-1.3839,-1.3823,-1.3876,-1.3871,-1.389,-1.3905,-1.3878,-1.3969,-1.3949,-1.3908,-1.3844,-1.3951,-1.3989,-1.4005,-1.3789,-1.3787,-1.3786,-1.3784,0,0,-1.3912,-1.3899,-1.3915,-1.3918,-1.3914,-1.3939,-1.3984,-1.4003,-1.402,-1.4028,-1.4064,-1.4104,-1.4065,-1.4074,-1.4047,-1.4083,-1.4182,-1.4037,-1.4036,-1.4063,-1.4281,-1.4311,-1.433,-1.4157,-1.4159,-1.4162,-1.4281,0,-1.4032,-1.4107,-1.4074,-1.4152,-1.4182,-1.4127,-1.4165,-1.4168,-1.4154,-1.4178,-1.4164,-1.4192,-1.414,-1.4144,-1.4177,-1.4163,-1.4225,-1.4154,-1.4189,-1.4191,-1.4189,-1.435,-1.4382,-1.4495,-1.4296,-1.4298,-1.43,0,-1.4181,-1.4194,-1.4276,-1.4266,-1.4277,-1.4313,-1.4327,-1.4351,-1.4352,-1.434,-1.435,-1.4315,-1.4359,-1.4297,-1.4355,-1.4308,-1.4321,-1.4316,-1.432,-1.432,-1.4251,-1.4355,-1.453,-1.4546,-1.4323,-1.4321,-1.432,0,-1.4304,-1.4342,-1.4395,-1.44,-1.439,-1.4416,-1.4414,-1.4412,-1.4425,-1.4438,-1.4446,-1.4464,-1.4474,-1.4489,-1.446,-1.4418,-1.4523,-1.4459,-1.4514,-1.4515,-1.4538,-1.4536,-1.4716,-1.4548,-1.4548,-1.4548,-1.4548,0,-1.444,-1.4491,-1.445,-1.4483,-1.4539,-1.4501,-1.4558,-1.455,-1.4548,-1.4579,-1.4532,-1.4562,-1.4522,-1.4548,-1.4526,-1.4578,-1.4583,-1.4574,-1.4568,-1.4578,-1.4579,-1.4584,-1.4575,-1.4552,-1.4551,-1.455,-1.455,0,-1.4585,-1.456,-1.4614,-1.4601,-1.4599,-1.4641,-1.4629,-1.4659,-1.4643,-1.4682,-1.4689,-1.4664,-1.4692,-1.4665,-1.4692,-1.4677,-1.4746,-1.4728,-1.4745,-1.474,-1.4796,-1.479,-1.4984,-1.5008,-1.4827,-1.4828,-1.483,0,-1.4673,-1.4711,-1.4702,-1.4719,-1.4719,-1.4747,-1.476,-1.4725,-1.4741,-1.4745,-1.4775,-1.4799,-1.4816,-1.4863,-1.4847,-1.4867,-1.4849,-1.4916,-1.4852,-1.4861,-1.4849,-1.4846,-1.4849,-1.4929,-1.4931,-1.4932,-1.4934,0,-1.4831,-1.4817,-1.4837,-1.4854,-1.4871,-1.4883,-1.4891,-1.4907,-1.4871,-1.4891,-1.4919,-1.4932,-1.4959,-1.4983,-1.4999,-1.4996,-1.4959,-1.4954,-1.4968,-1.4978,-1.4985,-1.4981,-1.4779,-1.495,-1.4948,-1.4947,-1.4946,-1.4945,-1.495,-1.4981,-1.4979,-1.5004,-1.5006,-1.5015,-1.5042,-1.5029,-1.5052,-1.507,-1.5049,-1.5083,-1.5083,-1.51,-1.5102,-1.5128,-1.51,-1.512,-1.5125,-1.513,-1.5137,-1.4983,-1.5131,-1.513,-1.513,-1.5129,-1.5129,0,-1.5104,-1.5101,-1.5124,-1.5136,-1.5156,-1.5119,-1.5126,-1.5145,-1.5175,-1.5179,-1.5197,-1.5229,-1.5252,-1.5239,-1.5259,-1.5282,-1.5266,-1.5288,-1.5286,-1.5285,-1.5162,-1.5148,-1.5301,-1.5301,-1.5301,-1.5301,-1.5301,-1.5301,-1.5187,-1.5237,-1.5223,-1.5275,-1.5271,-1.5303,-1.531,-1.5318,-1.532,-1.5358,-1.5377,-1.5368,-1.5365,-1.5384,-1.5404,-1.5399,-1.5408,-1.5437,-1.5427,-1.5311,-1.5294,-1.5278,-1.5264,-1.544,-1.544,-1.5547,-1.5548,-1.5549]},{"header":{"parameterUnit":"m.s-1","parameterCategory":1,"la1":30.2991,"la2":30.254,"lo1":-89.0895,"lo2":-89.0444,"dy":0.0017,"dx":0.0017,"nx":28,"ny":28,"refTime":"2024-02-14T03:00:00:Z","depth":0,"parameterNumber":3,"parameterNumberName":"V-component_of_WINDS"},"data":[0,0,0,0,0,0,0,0,0,0,0,0,0,0,0,0,0,0,0,0,0,0,0,0,0,0,0,0,0,0,0,0,0,0,0,0,0,0,0,0,0,0,0,0,0,0,0,0,0,0,0,0,0,0,0,0,0,0,0.4474,0.4474,0,0.4459,0.4459,0.4459,0.4498,0.4499,0.45,0.4501,0.4483,0.4482,0.448,0,0,0,0,0,0,0,0,0,0,0,0,0,0.4535,0.4533,0.4474,0.4474,0.4474,0.4459,0.4459,0.4459,0.4498,0.4499,0.45,0.4502,0.4484,0.4482,0.448,0,0,0,0,0,0,0,0,0,0,0,0,0,0.4513,0.4533,0.4474,0.4491,0.4493,0.4459,0.4459,0.4459,0.4497,0.4499,0.4501,0.4503,0.4485,0.4482,0.448,0.4428,0,0,0.4473,0.4471,0,0,0,0,0,0,0,0,0.4514,0.4511,0.4489,0.449,0.4492,0.4482,0.4474,0.4449,0.4497,0.4495,0.4501,0.4503,0.4481,0.4479,0.4473,0.4428,0.4427,0.4472,0.4471,0.447,0.4469,0,0,0,0,0,0,0,0.4516,0.4512,0.4468,0.4489,0.449,0.4499,0.4498,0.4469,0.4478,0.4496,0.4498,0.4496,0.4482,0.4475,0.4472,0.4427,0.4472,0.447,0.4469,0.4468,0.434,0.4338,0,0,0,0,0,0,0.4515,0.4513,0.4469,0.4468,0.4508,0.4497,0.4496,0.4483,0.4479,0.448,0.4495,0.4498,0.4478,0.4475,0.4472,0.4412,0.447,0.4468,0.4466,0.4342,0.434,0.4338,0,0,0,0,0,0,0.4516,0.4511,0.4469,0.4491,0.4486,0.4494,0.448,0.4482,0.4475,0.4478,0.448,0.4485,0.4479,0.4475,0.4439,0.4412,0.4466,0.4464,0.4344,0.4341,0.4339,0.4291,0,0,0,0,0,0,0.4518,0.4511,0.4492,0.449,0.4485,0.4437,0.4478,0.4481,0.4471,0.4475,0.447,0.447,0.448,0.4443,0.4437,0.441,0.4462,0.4347,0.4343,0.434,0.4295,0.4287,0.428,0,0,0,0,0,0.452,0.4478,0.4491,0.4485,0.4461,0.4436,0.4433,0.4446,0.4468,0.4449,0.4451,0.4471,0.4416,0.4439,0.4433,0.4404,0.4349,0.4344,0.434,0.4299,0.4289,0.428,0,0,0,0,0,0,0.4475,0.4478,0.4492,0.4449,0.4442,0.4442,0.4418,0.4434,0.442,0.4425,0.4441,0.4439,0.4401,0.4399,0.4424,0.4355,0.4386,0.438,0.4357,0.4348,0.434,0.4341,0.446,0,0,0,0,0,0.446,0.4439,0.4443,0.4405,0.4401,0.441,0.4399,0.441,0.4403,0.44,0.44,0.4392,0.4374,0.4361,0.4343,0.4296,0.4295,0.4273,0.4265,0.4259,0.4254,0.4229,0.4219,0.4323,0.4323,0.4323,0,0,0.4428,0.4428,0.4414,0.4396,0.4392,0.437,0.4407,0.4382,0.4366,0.4396,0.4363,0.4362,0.4355,0.4313,0.4295,0.431,0.4225,0.4254,0.4249,0.4246,0.4224,0.4214,0.4205,0.432,0.4321,0.4321,0,0,0.436,0.4358,0.4326,0.4322,0.4316,0.4322,0.4315,0.4313,0.4315,0.4282,0.4304,0.4285,0.4252,0.4246,0.4239,0.417,0.4188,0.4164,0.4124,0.41,0.4092,0.4085,0.406,0.4052,0.4159,0.4159,0.4159,0,0.4322,0.429,0.4307,0.4281,0.4273,0.4301,0.4268,0.4263,0.4251,0.4245,0.4263,0.4223,0.422,0.4178,0.4161,0.4154,0.4146,0.4164,0.4092,0.4085,0.4078,0.4055,0.4046,0.4156,0.4156,0.4157,0.4157,0,0.4243,0.4221,0.4196,0.4186,0.4175,0.4145,0.4158,0.4144,0.4157,0.4161,0.4128,0.4125,0.4109,0.41,0.4111,0.4059,0.4069,0.4089,0.4121,0.4065,0.4044,0.4035,0.4152,0.4153,0.4154,0.4155,0,0,0.4144,0.4145,0.4135,0.4132,0.4128,0.4111,0.4084,0.4069,0.4057,0.4048,0.4026,0.3998,0.4018,0.4009,0.402,0.3999,0.3946,0.4022,0.4022,0.4008,0.3889,0.3874,0.3863,0.3958,0.3956,0.3955,0.389,0,0.4077,0.4031,0.4046,0.3999,0.3979,0.4006,0.3983,0.3978,0.3982,0.3966,0.397,0.395,0.3977,0.3973,0.3953,0.3956,0.3922,0.3961,0.3936,0.3935,0.3937,0.3852,0.3835,0.3774,0.3882,0.388,0.3879,0,0.3992,0.3982,0.3933,0.3934,0.3926,0.3905,0.3893,0.3877,0.3872,0.3877,0.3869,0.3885,0.3858,0.3891,0.3854,0.388,0.3871,0.3872,0.387,0.3867,0.3903,0.3847,0.3754,0.3745,0.3866,0.3867,0.3868,0,0.3924,0.3898,0.3866,0.3862,0.3863,0.3847,0.3846,0.3844,0.3834,0.3824,0.3818,0.3804,0.3796,0.3785,0.3797,0.382,0.3758,0.3792,0.3761,0.3761,0.3746,0.3747,0.365,0.3741,0.3741,0.3741,0.3742,0,0.3847,0.3816,0.3836,0.3816,0.3783,0.3801,0.3767,0.3769,0.3767,0.3748,0.3771,0.3752,0.377,0.3753,0.3762,0.373,0.3726,0.3729,0.3732,0.3727,0.3726,0.372,0.3725,0.3739,0.3739,0.374,0.374,0,0.3766,0.3778,0.3745,0.3749,0.3749,0.3724,0.3728,0.3709,0.3716,0.3692,0.3687,0.3697,0.3679,0.369,0.3671,0.3677,0.3636,0.3645,0.3638,0.364,0.3608,0.3611,0.3504,0.3491,0.359,0.359,0.3589,0,0.3715,0.3692,0.3695,0.3685,0.3683,0.3665,0.3656,0.3674,0.3663,0.3658,0.364,0.3624,0.3612,0.3581,0.3586,0.3572,0.358,0.3544,0.3578,0.3574,0.3579,0.358,0.3578,0.3536,0.3535,0.3534,0.3533,0,0.3625,0.3632,0.3619,0.3608,0.3597,0.3589,0.3582,0.3572,0.359,0.3577,0.3559,0.355,0.3532,0.3515,0.3503,0.3503,0.352,0.3523,0.3515,0.3509,0.3506,0.3507,0.3618,0.3525,0.3526,0.3526,0.3527,0.3527,0.3557,0.3538,0.3538,0.3522,0.352,0.3514,0.3498,0.3503,0.3489,0.3476,0.3487,0.3466,0.3463,0.345,0.3446,0.343,0.3445,0.3433,0.343,0.3427,0.3422,0.351,0.3428,0.3428,0.3428,0.3429,0.3429,0,0.3467,0.3469,0.3455,0.3446,0.3434,0.3455,0.3449,0.3437,0.3419,0.3415,0.3404,0.3384,0.3368,0.3373,0.336,0.3346,0.3354,0.3341,0.3342,0.3342,0.341,0.3418,0.3335,0.3335,0.3335,0.3335,0.3335,0.3335,0.3419,0.3389,0.3397,0.3367,0.3368,0.3349,0.3344,0.3339,0.3336,0.3313,0.3301,0.3305,0.3305,0.3292,0.3279,0.3281,0.3275,0.3259,0.3264,0.3328,0.3337,0.3346,0.3353,0.3258,0.3258,0.3197,0.3197,0.3196]}]]